Omak, WA

11:35 AM PDT on September 18, 2019 (GMT -0700)
Omak

Weather History for KOMK - August, 2019

Change the Weather History Date:

Wednesday, August 21, 2019

  Actual Average Record
Temperature  
Mean Temperature 75 °F 72 °F  
Max Temperature 91 °F 87 °F 100 °F (2005)
Min Temperature 58 °F 56 °F 34 °F (1945)
Degree Days  
Heating Degree Days 0 1  
Month to date heating degree days 0 1  
Since 1 June heating degree days 56 85  
Since 1 July heating degree days 0 16  
Cooling Degree Days 10 7  
Month to date cooling degree days 223 188  
Year to date cooling degree days 627 549  
Since 1 June cooling degree days 599 526  
Growing Degree Days 24 (Base 50)    
Moisture  
Dew Point 47 °F    
Average Humidity 39    
Maximum Humidity 61    
Minimum Humidity 17    
Precipitation  
Precipitation 0.15 in 0.01 in 0.55 in (1993)
Month to date precipitation 0.33 0.34  
Year to date precipitation 5.38 9.13  
Sea Level Pressure  
Sea Level Pressure 29.82 in    
Wind  
Wind Speed 7 mph (SSW)    
Max Wind Speed 17 mph    
Max Gust Speed 22 mph    
Visibility 10 miles    
Events Rain    
T = Trace of Precipitation, MM = Missing Value Source: NWS Daily Summary

Daily Weather History Graph

Daily Weather History Graph

Search for Another Location

Airport or City:

Astronomy

Aug. 21, 2019 Rise Set
Actual Time 5:59 AM PDT 8:01 PM PDT
Civil Twilight 5:26 AM PDT 8:35 PM PDT
Nautical Twilight 4:44 AM PDT 9:16 PM PDT
Astronomical Twilight 3:57 AM PDT 10:03 PM PDT
Moon 10:53 PM PDT (8/21) 12:07 PM PDT (8/21)
Length of Visible Light 15h 09m
Length of Day
14h 01m
Waning Gibbous, 68% of the Moon is Illuminated
Aug 21
Waning Gibbous
Aug 23
Last Quarter
Aug 30
New
Sep 5
First Quarter
Sep 13
Full

Hourly Weather History & Observations

Time (PDT) Temp. Dew Point Humidity Pressure Visibility Wind Dir Wind Speed Gust Speed Precip Events Conditions
12:53 AM 71.1 °F 43.0 °F 36% 29.84 in 10.0 mi West 8.1 mph - N/A   Clear
1:53 AM 71.1 °F 43.0 °F 36% 29.84 in 10.0 mi WNW 5.8 mph - N/A   Clear
2:53 AM 70.0 °F 44.1 °F 39% 29.83 in 10.0 mi West 8.1 mph - N/A   Clear
3:53 AM 68.0 °F 45.0 °F 43% 29.84 in 10.0 mi Calm Calm - N/A   Clear
4:53 AM 61.0 °F 44.1 °F 54% 29.85 in 10.0 mi WNW 5.8 mph - N/A   Clear
5:53 AM 59.0 °F 44.1 °F 58% 29.85 in 10.0 mi West 3.5 mph - N/A   Clear
6:53 AM 64.9 °F 45.0 °F 48% 29.86 in 10.0 mi Calm Calm - N/A   Clear
7:53 AM 71.1 °F 46.9 °F 42% 29.86 in 10.0 mi SE 3.5 mph - N/A   Clear
8:53 AM 75.9 °F 46.9 °F 36% 29.84 in 10.0 mi ENE 3.5 mph - N/A   Clear
9:53 AM 77.0 °F 48.0 °F 36% 29.84 in 10.0 mi SSE 4.6 mph - N/A   Clear
10:53 AM 82.0 °F 46.9 °F 29% 29.82 in 10.0 mi SE 9.2 mph - N/A   Clear
11:53 AM 90.0 °F 44.1 °F 20% 29.79 in 10.0 mi SSW 10.4 mph 18.4 mph N/A   Clear
12:53 PM 88.0 °F 37.9 °F 17% 29.78 in 10.0 mi SSW 12.7 mph - N/A   Clear
1:53 PM 84.9 °F 39.0 °F 20% 29.78 in 10.0 mi SSW 9.2 mph - N/A   Scattered Clouds
2:53 PM 87.1 °F 42.1 °F 21% 29.77 in 10.0 mi SSW 10.4 mph - 0.00 in   Overcast
3:53 PM 87.1 °F 42.1 °F 21% 29.76 in 10.0 mi SSW 8.1 mph - N/A   Overcast
4:53 PM 82.9 °F 43.0 °F 24% 29.76 in 10.0 mi SE 13.8 mph - N/A   Scattered Clouds
5:53 PM 81.0 °F 48.9 °F 33% 29.77 in 10.0 mi SE 6.9 mph - N/A   Clear
6:53 PM 77.0 °F 48.9 °F 37% 29.78 in 10.0 mi North 11.5 mph - N/A   Clear
7:53 PM 77.0 °F 48.9 °F 37% 29.79 in 10.0 mi Variable 3.5 mph - N/A   Clear
8:53 PM 75.0 °F 53.1 °F 46% 29.81 in 10.0 mi SSE 10.4 mph - N/A   Overcast
9:53 PM 71.1 °F 57.0 °F 61% 29.83 in 10.0 mi SSE 8.1 mph - 0.00 in   Overcast
10:53 PM 68.0 °F 59.0 °F 73% 29.84 in 10.0 mi SSE 3.5 mph - 0.14 in Rain Rain
11:53 PM 64.0 °F 57.9 °F 80% 29.83 in 10.0 mi NNW 5.8 mph - 0.01 in   Scattered Clouds